TimeCST,TemperatureF,Dew PointF,Humidity,Sea Level PressureIn,VisibilityMPH,Wind Direction,Wind SpeedMPH,Gust SpeedMPH,PrecipitationIn,Events,Conditions,WindDirDegrees,DateUTC
12:10 AM,-6.5,-11.0,81,29.96,7.0,Calm,Calm,-,N/A,,Clear,0,2013-02-24 06:10:00
12:30 AM,-4.7,-8.9,82,29.96,1.8,Calm,Calm,-,N/A,,Mist,0,2013-02-24 06:30:00
12:50 AM,-4.2,-8.3,82,29.97,0.2,Calm,Calm,-,N/A,,Haze,0,2013-02-24 06:50:00
1:10 AM,-7.1,-11.4,81,29.97,0.5,Calm,Calm,-,N/A,,Haze,0,2013-02-24 07:10:00
1:31 AM,-1.1,-4.9,84,29.97,0.8,Calm,Calm,-,N/A,,Mist,0,2013-02-24 07:31:00
1:50 AM,-4.4,-8.7,82,29.97,5.0,Calm,Calm,-,N/A,,Clear,0,2013-02-24 07:50:00
2:10 AM,-3.1,-7.1,83,29.97,7.0,Calm,Calm,-,N/A,,Clear,0,2013-02-24 08:10:00
2:31 AM,-6.5,-10.8,82,29.97,5.0,Calm,Calm,-,N/A,,Clear,0,2013-02-24 08:31:00
2:51 AM,-6.3,-10.8,81,29.97,7.0,Calm,Calm,-,N/A,,Clear,0,2013-02-24 08:51:00
3:10 AM,-5.4,-9.8,82,29.97,7.0,Calm,Calm,-,N/A,,Clear,0,2013-02-24 09:10:00
3:30 AM,-6.3,-10.8,81,29.97,7.0,Calm,Calm,-,N/A,,Clear,0,2013-02-24 09:30:00
3:50 AM,-8.9,-13.5,80,29.98,7.0,Calm,Calm,-,N/A,,Scattered Clouds,0,2013-02-24 09:50:00
4:11 AM,-9.8,-14.8,78,29.98,7.0,Calm,Calm,-,N/A,,Overcast,0,2013-02-24 10:11:00
4:30 AM,-8.5,-13.2,80,29.99,0.5,Calm,Calm,-,N/A,Fog,Light Freezing Fog,0,2013-02-24 10:30:00
4:50 AM,-6.2,-10.5,82,29.99,0.2,Calm,Calm,-,N/A,,Haze,0,2013-02-24 10:50:00
5:11 AM,-6.7,-11.2,81,30.00,0.5,Calm,Calm,-,N/A,Fog,Light Freezing Fog,0,2013-02-24 11:11:00
5:31 AM,-4.7,-8.9,82,30.01,5.0,Calm,Calm,-,N/A,,Overcast,0,2013-02-24 11:31:00
5:50 AM,-3.1,-6.9,84,30.01,7.0,Calm,Calm,-,N/A,,Overcast,0,2013-02-24 11:50:00
6:10 AM,-2.7,-6.7,83,30.01,7.0,Calm,Calm,-,N/A,,Overcast,0,2013-02-24 12:10:00
6:31 AM,-3.1,-6.9,84,30.01,7.0,Calm,Calm,-,N/A,,Overcast,0,2013-02-24 12:31:00
6:51 AM,-3.1,-6.9,84,30.02,7.0,Calm,Calm,-,N/A,,Overcast,0,2013-02-24 12:51:00
7:10 AM,-2.7,-6.7,83,30.02,7.0,Calm,Calm,-,N/A,,Overcast,0,2013-02-24 13:10:00
7:30 AM,-3.1,-7.1,83,30.02,5.0,Calm,Calm,-,N/A,,Overcast,0,2013-02-24 13:30:00
7:50 AM,-2.7,-6.7,83,30.03,5.0,Calm,Calm,-,N/A,,Overcast,0,2013-02-24 13:50:00
8:10 AM,-2.2,-6.0,84,30.03,5.0,Calm,Calm,-,N/A,,Overcast,0,2013-02-24 14:10:00
8:31 AM,-1.3,-5.1,84,30.05,1.2,Calm,Calm,-,N/A,,Overcast,0,2013-02-24 14:31:00
8:50 AM,0.3,-3.6,83,30.05,2.5,Calm,Calm,-,N/A,,Overcast,0,2013-02-24 14:50:00
9:11 AM,1.6,-2.2,84,30.06,1.5,Calm,Calm,-,N/A,,Overcast,0,2013-02-24 15:11:00
9:30 AM,3.2,-0.4,85,30.06,3.0,Calm,Calm,-,N/A,,Mist,0,2013-02-24 15:30:00
9:50 AM,4.5,0.9,85,30.07,1.5,Calm,Calm,-,N/A,Snow,Light Snow,0,2013-02-24 15:50:00
10:11 AM,5.5,1.9,85,30.07,3.0,Calm,Calm,-,N/A,Snow,Light Snow,0,2013-02-24 16:11:00
10:31 AM,5.7,2.1,85,30.07,3.0,Calm,Calm,-,N/A,Snow,Light Snow,0,2013-02-24 16:31:00
10:50 AM,7.2,3.4,85,30.08,3.0,Calm,Calm,-,N/A,,Overcast,0,2013-02-24 16:50:00
11:10 AM,10.4,7.2,87,30.08,3.0,Calm,Calm,-,N/A,,Scattered Clouds,0,2013-02-24 17:10:00
11:31 AM,10.8,7.5,87,30.08,5.0,Calm,Calm,-,N/A,,Clear,0,2013-02-24 17:31:00
11:50 AM,11.3,8.2,87,30.08,5.0,Calm,Calm,-,N/A,,Scattered Clouds,0,2013-02-24 17:50:00
12:10 PM,12.2,9.1,88,30.08,5.0,Calm,Calm,-,N/A,,Clear,0,2013-02-24 18:10:00
12:30 PM,14.0,11.1,88,30.08,7.0,Calm,Calm,-,N/A,,Clear,0,2013-02-24 18:30:00
12:50 PM,15.3,12.2,88,30.08,7.0,SSE,3.5,-,N/A,,Clear,150,2013-02-24 18:50:00
1:10 PM,16.7,13.1,86,30.08,7.0,South,3.5,-,N/A,,Clear,190,2013-02-24 19:10:00
1:30 PM,17.2,13.1,84,30.07,7.0,South,4.6,-,N/A,,Clear,170,2013-02-24 19:30:00
1:50 PM,18.3,13.5,81,30.06,7.0,SSE,3.5,-,N/A,,Clear,160,2013-02-24 19:50:00
2:11 PM,18.1,13.3,81,30.06,7.0,South,3.5,-,N/A,,Clear,190,2013-02-24 20:11:00
2:30 PM,16.7,12.9,85,30.05,7.0,Calm,Calm,-,N/A,,Clear,0,2013-02-24 20:30:00
2:50 PM,18.9,14.0,81,30.05,10.0,Calm,Calm,-,N/A,,Clear,0,2013-02-24 20:50:00
3:10 PM,21.0,14.5,76,30.05,7.0,WNW,3.5,-,N/A,,Clear,300,2013-02-24 21:10:00
3:30 PM,21.9,14.2,72,30.04,7.0,WNW,3.5,-,N/A,,Clear,300,2013-02-24 21:30:00
3:50 PM,21.2,14.4,75,30.05,7.0,West,4.6,-,N/A,,Clear,280,2013-02-24 21:50:00
4:11 PM,19.6,13.8,78,30.05,7.0,Calm,Calm,-,N/A,,Clear,0,2013-02-24 22:11:00
4:30 PM,17.6,12.6,81,30.05,7.0,Calm,Calm,-,N/A,,Clear,0,2013-02-24 22:30:00
4:51 PM,16.7,11.8,81,30.05,10.0,Calm,Calm,-,N/A,,Clear,0,2013-02-24 22:51:00
5:10 PM,16.9,11.8,81,30.05,7.0,Calm,Calm,-,N/A,,Clear,0,2013-02-24 23:10:00
5:31 PM,15.3,11.3,84,30.05,7.0,Calm,Calm,-,N/A,,Clear,0,2013-02-24 23:31:00
5:50 PM,14.9,11.3,86,30.05,7.0,Calm,Calm,-,N/A,,Clear,0,2013-02-24 23:50:00
6:10 PM,13.3,10.6,89,30.06,7.0,Calm,Calm,-,N/A,,Clear,0,2013-02-25 00:10:00
6:31 PM,9.0,6.3,89,30.07,7.0,Calm,Calm,-,N/A,,Clear,0,2013-02-25 00:31:00
6:50 PM,6.6,3.9,89,30.08,7.0,SW,3.5,-,N/A,,Clear,230,2013-02-25 00:50:00
7:10 PM,6.1,3.0,87,30.08,7.0,WSW,3.5,-,N/A,,Clear,240,2013-02-25 01:10:00
7:30 PM,6.8,3.9,88,30.09,7.0,Calm,Calm,-,N/A,,Clear,0,2013-02-25 01:30:00
7:50 PM,4.5,1.2,86,30.09,7.0,WSW,3.5,-,N/A,,Clear,250,2013-02-25 01:50:00
8:11 PM,6.3,3.2,87,30.08,4.0,Calm,Calm,-,N/A,,Clear,0,2013-02-25 02:11:00
8:31 PM,7.5,4.6,88,30.09,5.0,West,3.5,-,N/A,,Clear,260,2013-02-25 02:31:00
8:50 PM,5.9,2.5,86,30.09,5.0,WSW,3.5,-,N/A,,Clear,240,2013-02-25 02:50:00
9:11 PM,6.8,3.9,88,30.09,5.0,Calm,Calm,-,N/A,,Clear,0,2013-02-25 03:11:00
9:30 PM,3.9,0.5,86,30.10,5.0,SSW,3.5,-,N/A,,Clear,200,2013-02-25 03:30:00
9:50 PM,3.7,0.5,86,30.10,4.0,SSW,3.5,-,N/A,,Clear,210,2013-02-25 03:50:00
10:10 PM,5.9,2.8,87,30.11,1.2,WSW,3.5,-,N/A,,Overcast,250,2013-02-25 04:10:00
10:31 PM,10.8,8.1,89,30.11,1.8,Calm,Calm,-,N/A,,Overcast,0,2013-02-25 04:31:00
10:51 PM,12.7,10.0,89,30.11,5.0,WSW,3.5,-,N/A,,Overcast,240,2013-02-25 04:51:00
11:10 PM,15.3,13.1,91,30.10,2.5,WSW,4.6,-,N/A,,Overcast,250,2013-02-25 05:10:00
11:30 PM,16.3,14.0,90,30.10,0.5,Calm,Calm,-,N/A,Fog,Light Freezing Fog,0,2013-02-25 05:30:00
11:50 PM,16.7,14.9,93,30.10,0.5,Calm,Calm,-,N/A,Fog,Light Freezing Fog,0,2013-02-25 05:50:00